Weather in Angoya

Russia / Republic of Buryatia     56°00′34″N   110°54′31″E
temp.,
°C
wind,
m/s
gust,
m/s
humid.,
%
clouds,
%
prec.,
mm/h
press.,
hPa
HPBL,
m
28 february, sun
sun2823:00−26wnw337995 0.0 103656
02:00−27wnw238097 0.0 103835
05:00−29wnw237974 0.0 103929
08:00−29wnw228079 0.0 104134
11:00−23wsw257892 0.0 1039601
14:00−21w347185 0.0 1038868
17:00−22wnw2479100 0.0 1037192
20:00−25wnw2287100 0.1 103920
1 march, mon
mon123:00−25wnw1293100 0.1 103921
02:00−26ne0198100 0.2 103919
05:00−27wnw0198100 0.1 103719
08:00−27ene1198100 0.2 103728
11:00−24ese1197100 0.1 1033208
14:00−22ese1193100 0.1 1029288
17:00−22ese1195100 0.1 1026185
20:00−25nne1195100 0.1 102620
2 march, tue
tue223:00−25ne1197100 0.1 102420
02:00−26ene1199100 0.2 102220
05:00−27ene1199100 0.1 102019
08:00−26ene1199100 0.3 101826
11:00−23e2295100 0.3 1014309
14:00−20se1194100 0.4 1012319
17:00−20s1196100 0.3 1012169
20:00−22w1196100 0.4 101521
3 march, wed
wed323:00−23nne119290 0.1 101522
02:00−24nnw119495 0.2 101622
05:00−25nnw1294100 0.1 101731
08:00−25nnw1292100 0.3 101940
11:00−22ne1188100 0.1 1018505
14:00−20nne1279100 0.3 1020875
17:00−23n3571100 0.1 1022449
20:00−28nnw2277100 0.1 102838
4 march, thu
thu423:00−29nnw1284100 0.0 103132
02:00−31n118593 0.1 103323
05:00−34nne118554 0.0 103520
08:00−35ne118551 0.0 103819
11:00−30ese119247 0.0 1037209
14:00−26se118638 0.0 1037355
17:00−27ese118843 0.0 1039171
20:00−32nnw127721 0.0 104422